Location: Newark
(48.5156°N, 1.8989°W)
Time: 14:00:59
(UTC+00:00)

Vanguard 1 Rocket - Pass Details

Date: 17 November 2019
Orbit: 650 x 4226 km, 34.3° (Epoch: 15 December)

Event Time Altitude Azimuth Distance (km) Brightness Sun altitude
Exits shadow 06:32:12 -1° 245° (WSW) 3,138 9.7 -7.8°
Rises 06:32:21 0° 245° (WSW) 3,086 9.7 -7.7°
Reaches altitude 10° 06:34:55 10° 227° (SW) 2,343 9.3 -7.3°
Maximum altitude 06:38:54 21° 178° (S) 2,033 9.5 -6.7°
Drops below altitude 10° 06:44:26 10° 132° (SE) 3,389 11.7 -5.9°
Sets 06:49:10 0° 119° (ESE) 4,988 13.8 -5.1°
